This demonstration page uses our WeatherBlox Daily Observations layout. Learn more.

Left ArrowRight Arrow

44.89941, -97.11507

Hourly Observations for November 26, 2015

Temp ( °F °C ) Dew Point ( °F °C ) Humidity (%) Winds ( mph kmh ) Pressure ( in mb ) Visibility ( mi km ) Precip ( " mm )
12:53 am 00:53 Cloudy 25 -3.9 20 -6.7 81 81 N 17 28 30.27 1025 10 16 0.00 0.00
1:21 am 01:21 Cloudy 24 -4.4 19 -7.2 81 81 N 18 30 30.33 1027 10 16 0.00 0.00
1:53 am 01:53 Cloudy 24 -4.4 19 -7.2 81 81 N 22 35 30.26 1025 10 16 0.00 0.00
2:53 am 02:53 Cloudy 23 -5 18 -7.8 81 81 N 14 22 30.30 1026 10 16 0.00 0.00
3:53 am 03:53 Cloudy 23 -5 18 -7.8 81 81 N 17 28 30.29 1026 10 16 0.00 0.00
4:53 am 04:53 Cloudy 22 -5.6 16 -8.9 78 78 N 17 28 30.30 1026 10 16 0.00 0.00
5:53 am 05:53 Cloudy 21 -6.1 15 -9.4 78 78 N 14 22 30.36 1028 10 16 0.00 0.00
6:21 am 06:21 Cloudy 20 -6.7 14 -10 78 78 N 14 22 30.45 1031 10 16 0.00 0.00
6:53 am 06:53 Cloudy 20 -6.7 13 -10.6 74 74 N 16 26 30.38 1029 10 16 0.00 0.00
7:53 am 07:53 Cloudy with Light Snow 19 -7.2 12 -11.1 74 74 N 17 28 30.40 1030 4 6 0.00 0.03
8:53 am 08:53 Cloudy 19 -7.2 11 -11.7 71 71 N 20 31 30.41 1030 9 14 0.00 0.03
9:53 am 09:53 Partly Cloudy 20 -6.7 11 -11.7 68 68 N 20 31 30.42 1030 10 16 0.00 0.00
10:53 am 10:53 Cloudy 21 -6.1 11 -11.7 65 65 N 14 22 30.45 1031 10 16 0.00 0.00
11:53 am 11:53 Cloudy 22 -5.6 11 -11.7 63 63 N 18 30 30.45 1031 10 16 0.00 0.00
12:53 pm 12:53 Mostly Cloudy 24 -4.4 12 -11.1 60 60 N 18 30 30.45 1031 10 16 0.00 0.00
1:53 pm 13:53 Sunny 23 -5 12 -11.1 63 63 N 20 31 30.46 1031 10 16 0.00 0.00
2:53 pm 14:53 Sunny 24 -4.4 12 -11.1 60 60 NNW 16 26 30.47 1032 10 16 0.00 0.00
3:53 pm 15:53 Sunny 21 -6.1 12 -11.1 68 68 N 16 26 30.49 1033 10 16 0.00 0.00
4:53 pm 16:53 Clear 19 -7.2 11 -11.7 71 71 N 16 26 30.50 1033 10 16 0.00 0.00
5:53 pm 17:53 Clear 16 -8.9 9 -12.8 74 74 N 14 22 30.55 1035 10 16 0.00 0.00
6:53 pm 18:53 Mostly Clear 16 -8.9 9 -12.8 74 74 N 15 24 30.53 1034 10 16 0.00 0.00
7:43 pm 19:43 Mostly Cloudy 15 -9.4 10 -12.2 80 80 N 13 20 30.62 1037 10 16 0.00 0.00
7:53 pm 19:53 Mostly Cloudy 15 -9.4 10 -12.2 80 80 N 10 17 30.55 1035 10 16 0.00 0.00
8:32 pm 20:32 Partly Cloudy 13 -10.6 9 -12.8 84 84 N 10 17 30.65 1038 10 16 0.00 0.00
8:53 pm 20:53 Clear 13 -10.6 9 -12.8 84 84 N 9 15 30.59 1036 10 16 0.00 0.00
9:21 pm 21:21 Mostly Cloudy 14 -10 9 -12.8 80 80 N 13 20 30.65 1038 10 16 0.00 0.00
9:53 pm 21:53 Cloudy 15 -9.4 10 -12.2 80 80 N 17 28 30.60 1036 10 16 0.00 0.00
10:53 pm 22:53 Cloudy 15 -9.4 10 -12.2 80 80 NNE 10 17 30.63 1037 8 13 0.00 0.00
11:53 pm 23:53 Cloudy 14 -10 9 -12.8 80 80 N 13 20 30.63 1037 10 16 0.00 0.00

Powered by AerisWeather